Time,TemperatureF,DewpointF,PressureIn,WindDirection,WindDirectionDegrees,WindSpeedMPH,WindSpeedGustMPH,Humidity,HourlyPrecipIn,Conditions,Clouds,dailyrainin,SolarRadiationWatts/m^2,SoftwareType,DateUTC
2013-12-29 00:22:00,30.0,17.0,-100.00,North,-999,0.0,7.0,59,0.00,,,0.00,0.000000,,2013-12-29 07:22:00,
2013-12-29 00:32:00,30.0,17.0,-100.00,North,-999,0.0,7.0,59,0.00,,,0.00,0.000000,,2013-12-29 07:32:00,
2013-12-29 00:42:00,30.0,17.0,-100.00,North,-999,0.0,7.0,59,0.00,,,0.00,0.000000,,2013-12-29 07:42:00,
2013-12-29 00:52:00,30.0,17.0,-100.00,North,-999,0.0,7.0,59,0.00,,,0.00,0.000000,,2013-12-29 07:52:00,
2013-12-29 01:21:00,28.0,17.0,-100.00,NNE,15,3.0,6.0,62,0.00,,,0.00,0.000000,,2013-12-29 08:21:00,
2013-12-29 01:32:00,28.0,17.0,-100.00,NNE,15,3.0,6.0,62,0.00,,,0.00,0.000000,,2013-12-29 08:32:00,
2013-12-29 01:42:00,28.0,17.0,-100.00,NNE,15,3.0,6.0,62,0.00,,,0.00,0.000000,,2013-12-29 08:42:00,
2013-12-29 01:52:00,28.0,17.0,-100.00,NNE,15,3.0,6.0,62,0.00,,,0.00,0.000000,,2013-12-29 08:52:00,
2013-12-29 02:21:00,28.0,17.0,-100.00,NE,42,1.0,5.0,62,0.00,,,0.00,0.000000,,2013-12-29 09:21:00,
2013-12-29 02:33:00,28.0,17.0,-100.00,NE,42,1.0,5.0,62,0.00,,,0.00,0.000000,,2013-12-29 09:33:00,
2013-12-29 02:43:00,28.0,17.0,-100.00,NE,42,1.0,5.0,62,0.00,,,0.00,0.000000,,2013-12-29 09:43:00,
2013-12-29 02:53:00,28.0,17.0,-100.00,NE,42,1.0,5.0,62,0.00,,,0.00,0.000000,,2013-12-29 09:53:00,
2013-12-29 03:22:00,26.0,16.0,-100.00,NNE,18,1.0,5.0,66,0.00,,,0.00,0.000000,,2013-12-29 10:22:00,
2013-12-29 03:33:00,26.0,16.0,-100.00,NNE,18,1.0,5.0,66,0.00,,,0.00,0.000000,,2013-12-29 10:33:00,
2013-12-29 03:43:00,26.0,16.0,-100.00,NNE,18,1.0,5.0,66,0.00,,,0.00,0.000000,,2013-12-29 10:43:00,
2013-12-29 03:53:00,26.0,16.0,-100.00,NNE,18,1.0,5.0,66,0.00,,,0.00,0.000000,,2013-12-29 10:53:00,
2013-12-29 04:22:00,26.0,17.0,-100.00,North,-999,0.0,3.0,68,0.00,,,0.00,0.000000,,2013-12-29 11:22:00,
2013-12-29 04:33:00,26.0,17.0,-100.00,North,-999,0.0,3.0,68,0.00,,,0.00,0.000000,,2013-12-29 11:33:00,
2013-12-29 04:42:00,26.0,17.0,-100.00,North,-999,0.0,3.0,68,0.00,,,0.00,0.000000,,2013-12-29 11:42:00,
2013-12-29 04:53:00,26.0,17.0,-100.00,North,-999,0.0,3.0,68,0.00,,,0.00,0.000000,,2013-12-29 11:53:00,
2013-12-29 05:22:00,25.0,17.0,-100.00,NNE,26,2.0,3.0,70,0.00,,,0.00,0.000000,,2013-12-29 12:22:00,
2013-12-29 05:32:00,25.0,17.0,-100.00,NNE,26,2.0,3.0,70,0.00,,,0.00,0.000000,,2013-12-29 12:32:00,
2013-12-29 05:42:00,25.0,17.0,-100.00,NNE,26,2.0,3.0,70,0.00,,,0.00,0.000000,,2013-12-29 12:42:00,
2013-12-29 05:52:00,25.0,17.0,-100.00,NNE,26,2.0,3.0,70,0.00,,,0.00,0.000000,,2013-12-29 12:52:00,
2013-12-29 06:22:00,25.0,17.0,-100.00,NE,49,2.0,5.0,71,0.00,,,0.00,0.000000,,2013-12-29 13:22:00,
2013-12-29 06:32:00,25.0,17.0,-100.00,NE,49,2.0,5.0,71,0.00,,,0.00,0.000000,,2013-12-29 13:32:00,
2013-12-29 06:42:00,25.0,17.0,-100.00,NE,49,2.0,5.0,71,0.00,,,0.00,0.000000,,2013-12-29 13:42:00,
2013-12-29 06:53:00,25.0,17.0,-100.00,NE,49,2.0,5.0,71,0.00,,,0.00,0.000000,,2013-12-29 13:53:00,
2013-12-29 07:22:00,24.0,16.0,-100.00,North,358,3.0,5.0,71,0.00,,,0.00,0.000000,,2013-12-29 14:22:00,
2013-12-29 07:32:00,24.0,16.0,-100.00,North,358,3.0,5.0,71,0.00,,,0.00,0.000000,,2013-12-29 14:32:00,
2013-12-29 07:42:00,24.0,16.0,-100.00,North,358,3.0,5.0,71,0.00,,,0.00,0.000000,,2013-12-29 14:42:00,
2013-12-29 07:52:00,24.0,16.0,-100.00,North,358,3.0,5.0,71,0.00,,,0.00,0.000000,,2013-12-29 14:52:00,
2013-12-29 08:21:00,27.0,18.0,-100.00,East,99,1.0,6.0,68,0.00,,,0.00,13.000000,,2013-12-29 15:21:00,
2013-12-29 08:33:00,27.0,18.0,-100.00,East,99,1.0,6.0,68,0.00,,,0.00,13.000000,,2013-12-29 15:33:00,
2013-12-29 08:44:00,27.0,18.0,-100.00,East,99,1.0,6.0,68,0.00,,,0.00,13.000000,,2013-12-29 15:44:00,
2013-12-29 08:53:00,27.0,18.0,-100.00,East,99,1.0,6.0,68,0.00,,,0.00,13.000000,,2013-12-29 15:53:00,
2013-12-29 09:52:00,32.0,20.0,-100.00,South,171,2.0,5.0,61,0.00,,,0.00,143.000000,,2013-12-29 16:52:00,
2013-12-29 10:22:00,35.0,20.0,-100.00,South,169,4.0,6.0,55,0.00,,,0.00,320.000000,,2013-12-29 17:22:00,
2013-12-29 10:33:00,35.0,20.0,-100.00,South,169,4.0,6.0,55,0.00,,,0.00,320.000000,,2013-12-29 17:33:00,
2013-12-29 10:42:00,35.0,20.0,-100.00,South,169,4.0,6.0,55,0.00,,,0.00,320.000000,,2013-12-29 17:42:00,
2013-12-29 10:52:00,35.0,20.0,-100.00,South,169,4.0,6.0,55,0.00,,,0.00,320.000000,,2013-12-29 17:52:00,
2013-12-29 11:21:00,37.0,19.0,-100.00,West,263,4.0,7.0,47,0.00,,,0.00,450.000000,,2013-12-29 18:21:00,
2013-12-29 11:32:00,37.0,19.0,-100.00,West,263,4.0,7.0,47,0.00,,,0.00,450.000000,,2013-12-29 18:32:00,
2013-12-29 11:42:00,37.0,19.0,-100.00,West,263,4.0,7.0,47,0.00,,,0.00,450.000000,,2013-12-29 18:42:00,
2013-12-29 11:53:00,37.0,19.0,-100.00,West,263,4.0,7.0,47,0.00,,,0.00,450.000000,,2013-12-29 18:53:00,
2013-12-29 12:21:00,39.0,19.0,-100.00,West,274,5.0,10.0,44,0.00,,,0.00,531.000000,,2013-12-29 19:21:00,
2013-12-29 12:33:00,39.0,19.0,-100.00,West,274,5.0,10.0,44,0.00,,,0.00,531.000000,,2013-12-29 19:33:00,
2013-12-29 12:43:00,39.0,19.0,-100.00,West,274,5.0,10.0,44,0.00,,,0.00,531.000000,,2013-12-29 19:43:00,
2013-12-29 12:52:00,39.0,19.0,-100.00,West,274,5.0,10.0,44,0.00,,,0.00,531.000000,,2013-12-29 19:52:00,
2013-12-29 13:22:00,41.0,17.0,-100.00,South,190,5.0,11.0,38,0.00,,,0.00,552.000000,,2013-12-29 20:22:00,
2013-12-29 13:32:00,41.0,17.0,-100.00,South,190,5.0,11.0,38,0.00,,,0.00,552.000000,,2013-12-29 20:32:00,
2013-12-29 13:42:00,41.0,17.0,-100.00,South,190,5.0,11.0,38,0.00,,,0.00,552.000000,,2013-12-29 20:42:00,
2013-12-29 13:52:00,41.0,17.0,-100.00,South,190,5.0,11.0,38,0.00,,,0.00,552.000000,,2013-12-29 20:52:00,
2013-12-29 14:22:00,42.0,18.0,-100.00,SW,222,7.0,11.0,37,0.00,,,0.00,512.000000,,2013-12-29 21:22:00,
2013-12-29 14:33:00,42.0,18.0,-100.00,SW,222,7.0,11.0,37,0.00,,,0.00,512.000000,,2013-12-29 21:33:00,
2013-12-29 14:43:00,42.0,18.0,-100.00,SW,222,7.0,11.0,37,0.00,,,0.00,512.000000,,2013-12-29 21:43:00,
2013-12-29 14:53:00,42.0,18.0,-100.00,SW,222,7.0,11.0,37,0.00,,,0.00,512.000000,,2013-12-29 21:53:00,
2013-12-29 15:23:00,41.0,18.0,-100.00,SW,216,7.0,13.0,39,0.00,,,0.00,420.000000,,2013-12-29 22:23:00,
2013-12-29 15:33:00,41.0,18.0,-100.00,SW,216,7.0,13.0,39,0.00,,,0.00,420.000000,,2013-12-29 22:33:00,
2013-12-29 15:42:00,41.0,18.0,-100.00,SW,216,7.0,13.0,39,0.00,,,0.00,420.000000,,2013-12-29 22:42:00,
2013-12-29 15:52:00,41.0,18.0,-100.00,SW,216,7.0,13.0,39,0.00,,,0.00,420.000000,,2013-12-29 22:52:00,
2013-12-29 16:22:00,40.0,17.0,-100.00,West,266,6.0,13.0,39,0.00,,,0.00,264.000000,,2013-12-29 23:22:00,
2013-12-29 16:33:00,40.0,17.0,-100.00,West,266,6.0,13.0,39,0.00,,,0.00,264.000000,,2013-12-29 23:33:00,
2013-12-29 16:42:00,40.0,17.0,-100.00,West,266,6.0,13.0,39,0.00,,,0.00,264.000000,,2013-12-29 23:42:00,
2013-12-29 16:52:00,40.0,17.0,-100.00,West,266,6.0,13.0,39,0.00,,,0.00,264.000000,,2013-12-29 23:52:00,
2013-12-29 17:22:00,36.0,18.0,-100.00,SW,215,3.0,13.0,47,0.00,,,0.00,87.000000,,2013-12-30 00:22:00,
2013-12-29 17:32:00,36.0,18.0,-100.00,SW,215,3.0,13.0,47,0.00,,,0.00,87.000000,,2013-12-30 00:32:00,
2013-12-29 17:42:00,36.0,18.0,-100.00,SW,215,3.0,13.0,47,0.00,,,0.00,87.000000,,2013-12-30 00:42:00,
2013-12-29 17:52:00,36.0,18.0,-100.00,SW,215,3.0,13.0,47,0.00,,,0.00,87.000000,,2013-12-30 00:52:00,
2013-12-29 18:22:00,31.0,18.0,-100.00,NNW,337,3.0,8.0,58,0.00,,,0.00,1.000000,,2013-12-30 01:22:00,
2013-12-29 18:32:00,31.0,18.0,-100.00,NNW,337,3.0,8.0,58,0.00,,,0.00,1.000000,,2013-12-30 01:32:00,
2013-12-29 18:42:00,31.0,18.0,-100.00,NNW,337,3.0,8.0,58,0.00,,,0.00,1.000000,,2013-12-30 01:42:00,
2013-12-29 18:52:00,31.0,18.0,-100.00,NNW,337,3.0,8.0,58,0.00,,,0.00,1.000000,,2013-12-30 01:52:00,
2013-12-29 19:22:00,30.0,17.0,-100.00,NNW,331,3.0,6.0,59,0.00,,,0.00,0.000000,,2013-12-30 02:22:00,
2013-12-29 19:32:00,30.0,17.0,-100.00,NNW,331,3.0,6.0,59,0.00,,,0.00,0.000000,,2013-12-30 02:32:00,
2013-12-29 19:42:00,30.0,17.0,-100.00,NNW,331,3.0,6.0,59,0.00,,,0.00,0.000000,,2013-12-30 02:42:00,
2013-12-29 19:52:00,30.0,17.0,-100.00,NNW,331,3.0,6.0,59,0.00,,,0.00,0.000000,,2013-12-30 02:52:00,
2013-12-29 20:21:00,28.0,18.0,-100.00,North,-999,0.0,7.0,65,0.00,,,0.00,0.000000,,2013-12-30 03:21:00,
2013-12-29 20:33:00,28.0,18.0,-100.00,North,-999,0.0,7.0,65,0.00,,,0.00,0.000000,,2013-12-30 03:33:00,
2013-12-29 20:43:00,28.0,18.0,-100.00,North,-999,0.0,7.0,65,0.00,,,0.00,0.000000,,2013-12-30 03:43:00,
2013-12-29 20:53:00,28.0,18.0,-100.00,North,-999,0.0,7.0,65,0.00,,,0.00,0.000000,,2013-12-30 03:53:00,
2013-12-29 21:22:00,27.0,17.0,-100.00,North,357,4.0,6.0,65,0.00,,,0.00,0.000000,,2013-12-30 04:22:00,
2013-12-29 21:33:00,27.0,17.0,-100.00,North,357,4.0,6.0,65,0.00,,,0.00,0.000000,,2013-12-30 04:33:00,
2013-12-29 21:42:00,27.0,17.0,-100.00,North,357,4.0,6.0,65,0.00,,,0.00,0.000000,,2013-12-30 04:42:00,
2013-12-29 21:52:00,27.0,17.0,-100.00,North,357,4.0,6.0,65,0.00,,,0.00,0.000000,,2013-12-30 04:52:00,
2013-12-29 22:23:00,25.0,17.0,-100.00,North,11,6.0,7.0,70,0.00,,,0.00,0.000000,,2013-12-30 05:23:00,
2013-12-29 22:33:00,25.0,17.0,-100.00,North,11,6.0,7.0,70,0.00,,,0.00,0.000000,,2013-12-30 05:33:00,
2013-12-29 22:42:00,25.0,17.0,-100.00,North,11,6.0,7.0,70,0.00,,,0.00,0.000000,,2013-12-30 05:42:00,
2013-12-29 22:53:00,25.0,17.0,-100.00,North,11,6.0,7.0,70,0.00,,,0.00,0.000000,,2013-12-30 05:53:00,
2013-12-29 23:23:00,24.0,16.0,-100.00,NW,326,4.0,7.0,71,0.00,,,0.00,0.000000,,2013-12-30 06:23:00,
2013-12-29 23:32:00,24.0,16.0,-100.00,NW,326,4.0,7.0,71,0.00,,,0.00,0.000000,,2013-12-30 06:32:00,
2013-12-29 23:42:00,24.0,16.0,-100.00,NW,326,4.0,7.0,71,0.00,,,0.00,0.000000,,2013-12-30 06:42:00,
2013-12-29 23:53:00,24.0,16.0,-100.00,NW,326,4.0,7.0,71,0.00,,,0.00,0.000000,,2013-12-30 06:53:00,